This demonstration page uses our WeatherBlox Daily Observations layout. Learn more.

Left ArrowRight Arrow

Hourly Observations for June 8, 2019

Temp ( °F °C ) Dew Point ( °F °C ) Humidity (%) Winds ( mph kmh ) Pressure ( in mb ) Visibility ( mi km ) Precip ( " mm )
12:53 am 00:53 Mostly Clear 72 22.2 57 13.9 59 59 ENE 10 17 29.89 1012 10 16 N/A
1:53 am 01:53 Cloudy 72 22.2 56 13.3 57 57 ENE 9 15 29.87 1012 10 16 N/A
2:53 am 02:53 Partly Cloudy 70 21.1 57 13.9 64 64 E 9 15 29.87 1012 10 16 N/A
3:53 am 03:53 Mostly Cloudy 69 20.6 58 14.4 68 68 E 9 15 29.87 1011 10 16 N/A
4:53 am 04:53 Clear 69 20.6 59 15 70 70 ENE 10 17 29.88 1012 10 16 N/A
5:53 am 05:53 Clear 68 20 60 15.6 76 76 E 12 19 29.88 1012 10 16 N/A
6:53 am 06:53 Sunny 69 20.6 61 16.1 76 76 ENE 8 13 29.90 1012 10 16 N/A
7:53 am 07:53 Mostly Sunny 70 21.1 63 17.2 79 79 E 12 19 29.91 1013 10 16 N/A
8:53 am 08:53 Sunny 72 22.2 64 17.8 76 76 E 14 22 29.91 1013 10 16 N/A
9:53 am 09:53 Sunny 73 22.8 64 17.8 74 74 E 14 22 29.91 1013 10 16 N/A
10:53 am 10:53 Cloudy 76 24.4 65 18.3 69 69 E 12 19 29.91 1013 10 16 N/A
11:53 am 11:53 Cloudy 75 23.9 64 17.8 69 69 E 9 15 29.91 1013 10 16 N/A
12:53 pm 12:53 Cloudy 75 23.9 65 18.3 71 71 E 13 20 29.92 1013 10 16 N/A
1:53 pm 13:53 Cloudy with Light Rain 74 23.3 65 18.3 74 74 E 10 17 29.92 1013 10 16 N/A
2:53 pm 14:53 Cloudy with Light Rain 74 23.3 65 18.3 74 74 E 10 17 29.92 1013 10 16 N/A
3:43 pm 15:43 Cloudy 74 23.3 65 18.3 74 74 E 15 24 29.91 1013 10 16 0.01 0.25
3:53 pm 15:53 Cloudy 74 23.3 65 18.3 74 74 E 13 20 29.91 1013 10 16 0.01 0.25
4:53 pm 16:53 Cloudy 74 23.3 66 18.9 76 76 E 12 19 29.90 1013 10 16 N/A
5:53 pm 17:53 Cloudy 72 22.2 65 18.3 79 79 E 14 22 29.91 1013 10 16 N/A
6:53 pm 18:53 Cloudy 72 22.2 65 18.3 79 79 E 14 22 29.90 1013 10 16 N/A
7:53 pm 19:53 Cloudy 72 22.2 65 18.3 79 79 E 10 17 29.91 1013 10 16 N/A
8:41 pm 20:41 Cloudy 73 22.8 65 18.3 76 76 E 13 20 29.90 1013 10 16 N/A
8:53 pm 20:53 Cloudy 72 22.2 65 18.3 79 79 E 13 20 29.91 1013 10 16 N/A
9:53 pm 21:53 Cloudy 72 22.2 65 18.3 79 79 E 12 19 29.92 1013 10 16 N/A
10:53 pm 22:53 Cloudy with Light Rain 71 21.7 64 17.8 79 79 E 13 20 29.93 1013 10 16 N/A
11:53 pm 23:53 Mostly Cloudy with Light Rain 70 21.1 64 17.8 82 82 E 8 13 29.93 1013 10 16 N/A

Powered by AerisWeather